Regional Weather Roundup
Issued by NWS Goodland, KS

Home | Current Version | Previous Version | Text Only | Print | Product List | Glossary On
Versions: 1 2 3 4 5 6 7 8 9 10 11 12 13 14 15 16 17 18 19 20 21 22 23 24 25 26 27 28 29 30 31 32 33 34 35 36 37 38 39 40 41 42 43 44 45 46 47 48 49 50
000
ASUS43 KGLD 291059
RWRGLD

GOODLAND FORECAST AREA HOURLY WEATHER ROUNDUP
NATIONAL WEATHER SERVICE GOODLAND KS
500 AM MDT FRI AUG 29 2014

...OFFICIAL OBSERVATIONS...

CITY           SKY/WX    TMP DP  RH WIND       PRES   REMARKS
GOODLAND KS    CLEAR     55  53  93 W8        29.97S
HILL CITY KS   CLOUDY    63  58  83 W5        29.88R
IMPERIAL NEB   CLEAR     57  52  83 NW9       29.93F
MCCOOK NEB     CLEAR     58  55  90 W7        29.90R
AKRON CO       CLEAR     53  48  83 W13       30.02F
BURLINGTON CO  CLEAR     53  49  86 W8        30.00S
LIMON CO       PTCLDY    50  45  83 CALM      30.09F
$$

...UNOFFICIAL OBSERVATIONS...

CITY           SKY/WX    TMP DP  RH WIND       PRES   REMARKS
COLBY KS       CLEAR     57  57 100 W8        29.95S
GOVE KS          N/A     59  32  36 CALM        N/A
NORTON KS      CLEAR     59  54  82 W8        29.86S
SHARON SPRINGS   N/A     54  53  95 NW6         N/A
WAKEENEY KS      N/A     63  56  79 MISG        N/A
KIT CARSON CO    N/A     55  46  72 CALM        N/A
YUMA CO          N/A     54  50  87 W9          N/A
$$


USA.gov is the U.S. government's official web portal to all federal, state and local government web resources and services.